Change the Weather History Date:

Wednesday, January 30, 2013

  Actual Average (KLAW) Record (KLAW)
Temperature  
Mean Temperature 40 °F -  
Max Temperature 48 °F 54 °F 75 °F (1962)
Min Temperature 33 °F 28 °F 3 °F (1966)
Degree Days  
Heating Degree Days 24    
Moisture  
Dew Point 28 °F    
Average Humidity 62    
Maximum Humidity 87    
Minimum Humidity 32    
Precipitation  
Precipitation 0.00 in - - ()
Sea Level Pressure  
Sea Level Pressure 29.97 in    
Wind  
Wind Speed 13 mph (NW)    
Max Wind Speed 23 mph    
Max Gust Speed 30 mph    
Visibility 10 miles    
Events      
Averages and records for this station are not official NWS values.
T = Trace of Precipitation, MM = Missing Value Source: NWS Daily Summary

Daily Weather History Graph

Daily Weather History Graph

Search for Another Location

Airport or City:

Trip Planner

Search our weather history database for the weather conditions in past years. The results will help you decide how hot, cold, wet, or windy it might be!

Date:

Astronomy

Jan. 30, 2013 Rise Set
Actual Time 7:30 AM CST 5:59 PM CST
Civil Twilight 7:04 AM CST 6:26 PM CST
Nautical Twilight 6:34 AM CST 6:56 PM CST
Astronomical Twilight 6:04 AM CST 7:26 PM CST
Moon 9:46 PM CST (1/30) 9:11 AM CST (1/30)
Length of Visible Light 11h 21m
Length of Day
10h 28m
Waning Gibbous, 87% of the Moon is Illuminated
Jan 30
Waning Gibbous
Feb 3
Last Quarter
Feb 10
New
Feb 17
First Quarter
Feb 25
Full

Hourly Weather History & Observations

Time (CST) Temp. Windchill Dew Point Humidity Pressure Visibility Wind Dir Wind Speed Gust Speed Precip Events Conditions
12:15 AM 42.8 °F 37.5 °F 37.4 °F 81% 29.69 in 10.0 mi North 9.2 mph - N/A   Mostly Cloudy
12:35 AM 42.8 °F 35.8 °F 35.6 °F 76% 29.70 in 10.0 mi NNW 13.8 mph 20.7 mph N/A   Overcast
12:55 AM 42.8 °F 35.4 °F 35.6 °F 76% 29.70 in 10.0 mi NNW 15.0 mph 18.4 mph N/A   Overcast
1:15 AM 41.0 °F 33.5 °F 35.6 °F 81% 29.70 in 10.0 mi NNW 13.8 mph 20.7 mph N/A   Scattered Clouds
1:55 AM 39.2 °F 32.0 °F 35.6 °F 87% 29.72 in 10.0 mi NW 11.5 mph - N/A   Scattered Clouds
2:15 AM 41.0 °F 34.3 °F 35.6 °F 81% 29.73 in 10.0 mi NW 11.5 mph - N/A   Mostly Cloudy
2:35 AM 41.0 °F 33.5 °F 35.6 °F 81% 29.75 in 10.0 mi NW 13.8 mph 20.7 mph N/A   Overcast
2:55 AM 41.0 °F 32.2 °F 33.8 °F 76% 29.76 in 10.0 mi NW 18.4 mph 24.2 mph N/A   Overcast
3:15 AM 41.0 °F 33.1 °F 33.8 °F 76% 29.77 in 10.0 mi NNW 15.0 mph 23.0 mph N/A   Overcast
3:35 AM 41.0 °F 33.1 °F 33.8 °F 76% 29.78 in 10.0 mi NNW 15.0 mph - N/A   Overcast
3:55 AM 41.0 °F 33.5 °F 33.8 °F 76% 29.79 in 10.0 mi NW 13.8 mph 21.9 mph N/A   Overcast
4:15 AM 41.0 °F 32.5 °F 32.0 °F 70% 29.80 in 10.0 mi NW 17.3 mph 25.3 mph N/A   Overcast
4:35 AM 41.0 °F 32.8 °F 32.0 °F 70% 29.80 in 10.0 mi NW 16.1 mph 24.2 mph N/A   Overcast
4:55 AM 41.0 °F 33.1 °F 32.0 °F 70% 29.82 in 10.0 mi NW 15.0 mph 19.6 mph N/A   Overcast
5:15 AM 41.0 °F 32.8 °F 32.0 °F 70% 29.82 in 10.0 mi NNW 16.1 mph 21.9 mph N/A   Overcast
5:35 AM 37.4 °F 28.2 °F 32.0 °F 81% 29.84 in 10.0 mi NNW 16.1 mph 25.3 mph N/A   Scattered Clouds
5:55 AM 37.4 °F 29.8 °F 32.0 °F 81% 29.85 in 10.0 mi NW 11.5 mph - N/A   Scattered Clouds
6:15 AM 37.4 °F 28.5 °F 30.2 °F 75% 29.87 in 10.0 mi NW 15.0 mph - N/A   Scattered Clouds
6:35 AM 37.4 °F 29.3 °F 32.0 °F 81% 29.89 in 10.0 mi NW 12.7 mph 21.9 mph N/A   Mostly Cloudy
6:55 AM 37.4 °F 29.3 °F 32.0 °F 81% 29.90 in 10.0 mi NW 12.7 mph - N/A   Overcast
7:15 AM 37.4 °F 29.3 °F 32.0 °F 81% 29.92 in 10.0 mi NW 12.7 mph 18.4 mph N/A   Mostly Cloudy
7:35 AM 37.4 °F 28.9 °F 32.0 °F 81% 29.93 in 10.0 mi NW 13.8 mph 18.4 mph N/A   Scattered Clouds
7:55 AM 37.4 °F 30.8 °F 32.0 °F 81% 29.94 in 10.0 mi NW 9.2 mph 17.3 mph N/A   Scattered Clouds
8:15 AM 37.4 °F 28.9 °F 32.0 °F 81% 29.95 in 10.0 mi NW 13.8 mph 19.6 mph N/A   Clear
8:35 AM 37.4 °F 28.2 °F 32.0 °F 81% 29.96 in 10.0 mi NW 16.1 mph 24.2 mph N/A   Clear
8:55 AM 39.2 °F 30.5 °F 32.0 °F 75% 29.97 in 10.0 mi NW 16.1 mph 23.0 mph N/A   Scattered Clouds
9:15 AM 39.2 °F 30.8 °F 32.0 °F 75% 29.99 in 10.0 mi NW 15.0 mph 23.0 mph N/A   Mostly Cloudy
9:35 AM 39.2 °F 28.7 °F 32.0 °F 75% 30.00 in 10.0 mi WNW 23.0 mph 29.9 mph N/A   Mostly Cloudy
9:55 AM 39.2 °F 29.0 °F 30.2 °F 70% 30.01 in 10.0 mi NW 21.9 mph 29.9 mph N/A   Clear
10:15 AM 39.2 °F 29.3 °F 30.2 °F 70% 30.02 in 10.0 mi NW 20.7 mph 27.6 mph N/A   Clear
10:35 AM 41.0 °F 32.2 °F 30.2 °F 65% 30.03 in 10.0 mi NW 18.4 mph 24.2 mph N/A   Clear
10:55 AM 41.0 °F 31.9 °F 30.2 °F 65% 30.04 in 10.0 mi NW 19.6 mph 24.2 mph N/A   Clear
11:15 AM 42.8 °F 34.8 °F 30.2 °F 61% 30.04 in 10.0 mi NW 17.3 mph 25.3 mph N/A   Clear
11:35 AM 42.8 °F 34.0 °F 30.2 °F 61% 30.04 in 10.0 mi NW 20.7 mph 25.3 mph N/A   Clear
11:55 AM 42.8 °F 34.8 °F 30.2 °F 61% 30.05 in 10.0 mi NW 17.3 mph 25.3 mph N/A   Clear
12:15 PM 42.8 °F 35.1 °F 30.2 °F 61% 30.05 in 10.0 mi NW 16.1 mph - N/A   Scattered Clouds
12:35 PM 44.6 °F 36.9 °F 30.2 °F 57% 30.05 in 10.0 mi WNW 18.4 mph 24.2 mph N/A   Scattered Clouds
12:55 PM 44.6 °F 37.4 °F 30.2 °F 57% 30.04 in 10.0 mi NW 16.1 mph 23.0 mph N/A   Scattered Clouds
1:15 PM 44.6 °F 37.2 °F 30.2 °F 57% 30.03 in 10.0 mi NW 17.3 mph 20.7 mph N/A   Scattered Clouds
1:35 PM 44.6 °F 38.4 °F 28.4 °F 53% 30.03 in 10.0 mi NW 12.7 mph - N/A   Scattered Clouds
1:55 PM 46.4 °F 39.8 °F 28.4 °F 50% 30.03 in 10.0 mi WNW 16.1 mph 23.0 mph N/A   Scattered Clouds
2:15 PM 46.4 °F 40.1 °F 28.4 °F 50% 30.03 in 10.0 mi NW 15.0 mph 21.9 mph N/A   Scattered Clouds
2:35 PM 46.4 °F 40.1 °F 28.4 °F 50% 30.03 in 10.0 mi NNW 15.0 mph 18.4 mph N/A   Scattered Clouds
2:55 PM 48.2 °F - 26.6 °F 43% 30.03 in 10.0 mi NW 17.3 mph 23.0 mph N/A   Scattered Clouds
3:15 PM 46.4 °F 40.1 °F 24.8 °F 43% 30.03 in 10.0 mi NW 15.0 mph 25.3 mph N/A   Scattered Clouds
3:35 PM 46.4 °F 40.7 °F 23.0 °F 40% 30.03 in 10.0 mi NW 12.7 mph 25.3 mph N/A   Scattered Clouds
3:55 PM 48.2 °F - 21.2 °F 34% 30.03 in 10.0 mi WNW 15.0 mph 21.9 mph N/A   Clear
4:15 PM 48.2 °F - 21.2 °F 34% 30.03 in 10.0 mi WNW 17.3 mph - N/A   Clear
4:35 PM 48.2 °F - 21.2 °F 34% 30.04 in 10.0 mi NW 17.3 mph 20.7 mph N/A   Clear
4:55 PM 48.2 °F - 19.4 °F 32% 30.04 in 10.0 mi WNW 17.3 mph 21.9 mph N/A   Clear
5:15 PM 46.4 °F 40.1 °F 19.4 °F 34% 30.04 in 10.0 mi NW 15.0 mph 23.0 mph N/A   Clear
5:35 PM 46.4 °F 40.4 °F 17.6 °F 32% 30.04 in 10.0 mi WNW 13.8 mph 20.7 mph N/A   Clear
5:55 PM 46.4 °F 42.4 °F 19.4 °F 34% 30.05 in 10.0 mi WNW 8.1 mph - N/A   Clear
6:15 PM 42.8 °F 39.3 °F 21.2 °F 42% 30.05 in 10.0 mi West 5.8 mph - N/A   Clear
6:35 PM 42.8 °F 40.1 °F 21.2 °F 42% 30.06 in 10.0 mi WNW 4.6 mph - N/A   Clear
6:55 PM 42.8 °F - 21.2 °F 42% 30.06 in 10.0 mi Calm Calm - N/A   Clear
7:15 PM 41.0 °F 39.0 °F 21.2 °F 45% 30.07 in 10.0 mi West 3.5 mph - N/A   Clear
7:35 PM 39.2 °F - 21.2 °F 49% 30.07 in 10.0 mi Calm Calm - N/A   Clear
7:55 PM 39.2 °F - 21.2 °F 49% 30.07 in 10.0 mi Calm Calm - N/A   Clear
8:15 PM 37.4 °F - 21.2 °F 52% 30.07 in 10.0 mi Calm Calm - N/A   Clear
8:35 PM 37.4 °F - 21.2 °F 52% 30.08 in 10.0 mi Calm Calm - N/A   Clear
8:55 PM 35.6 °F - 23.0 °F 60% 30.08 in 10.0 mi Calm Calm - N/A   Clear
9:15 PM 35.6 °F - 24.8 °F 65% 30.09 in 10.0 mi Calm Calm - N/A   Clear
9:35 PM 35.6 °F 32.8 °F 23.0 °F 60% 30.09 in 10.0 mi South 3.5 mph - N/A   Clear
9:55 PM 35.6 °F - 23.0 °F 60% 30.09 in 10.0 mi Calm Calm - N/A   Clear
10:15 PM 33.8 °F 30.8 °F 23.0 °F 65% 30.09 in 10.0 mi SSW 3.5 mph - N/A   Clear
10:35 PM 33.8 °F - 23.0 °F 65% 30.09 in 10.0 mi Calm Calm - N/A   Clear
10:55 PM 35.6 °F - 23.0 °F 60% 30.09 in 10.0 mi Calm Calm - N/A   Clear
11:15 PM 35.6 °F - 23.0 °F 60% 30.09 in 10.0 mi Calm Calm - N/A   Clear
11:35 PM 33.8 °F - 23.0 °F 65% 30.09 in 10.0 mi Calm Calm - N/A   Clear
11:55 PM 33.8 °F - 23.0 °F 65% 30.09 in 10.0 mi Calm Calm - N/A   Clear